CSW233 VMMC-ZUUU

Flight info

Callsign CSW233
Flight time N/A
Altitude 36100
Route MIPAG W21 CEN/K0870S1130 W21 NUSLA/K0869S1160 W22 TEPID W24 OSNOV G586 QP B330 ELKAL W179 IGNAK IGNAK9J
Aircraft B736/M-SDE2E3FGHIRWXY/LB1

Departure

Time N/A
Airport Macau International Airport (VMMC)

Arrival

Time 2026-05-08 07:47
Airport Chengdu Shuangliu International Airport (ZUUU)
Time Latitude Longitude Altitude Speed Heading
2026-05-08 05:48 23.41878 113.56405 25329 ft 444 kts 304°
2026-05-08 05:48 23.43631 113.53661 25754 ft 448 kts 304°
2026-05-08 05:49 23.45431 113.50855 26214 ft 451 kts 304°
2026-05-08 05:49 23.47212 113.48102 26761 ft 451 kts 304°
2026-05-08 05:49 23.49037 113.45301 27187 ft 454 kts 304°
2026-05-08 05:49 23.50876 113.42496 27592 ft 457 kts 304°
2026-05-08 05:50 23.52764 113.39739 28282 ft 454 kts 307°
2026-05-08 05:50 23.54809 113.37116 29083 ft 448 kts 310°
2026-05-08 05:50 23.56914 113.34682 29830 ft 444 kts 311°
2026-05-08 05:50 23.59107 113.32281 30484 ft 441 kts 312°
2026-05-08 05:51 23.61280 113.29955 31046 ft 440 kts 313°
2026-05-08 05:51 23.63473 113.27629 31512 ft 439 kts 312°
2026-05-08 05:51 23.65568 113.25252 32031 ft 435 kts 308°
2026-05-08 05:51 23.67423 113.22675 32543 ft 431 kts 302°
2026-05-08 05:52 23.68977 113.19891 33102 ft 426 kts 296°
2026-05-08 05:52 23.70244 113.17018 33740 ft 421 kts 292°
2026-05-08 05:52 23.71386 113.14101 34353 ft 416 kts 291°
2026-05-08 05:52 23.72477 113.11211 34978 ft 412 kts 291°
2026-05-08 05:53 23.73560 113.08328 35505 ft 409 kts 291°
2026-05-08 05:53 23.74682 113.05406 35913 ft 408 kts 293°
2026-05-08 05:53 23.76038 113.02702 36082 ft 413 kts 303°
2026-05-08 05:53 23.77955 113.00326 36081 ft 421 kts 314°
2026-05-08 05:54 23.80307 112.98360 36084 ft 427 kts 323°
2026-05-08 05:54 23.85625 112.95377 36096 ft 432 kts 332°
2026-05-08 05:55 23.91366 112.93229 36101 ft 437 kts 338°
2026-05-08 05:55 23.97208 112.91362 36101 ft 439 kts 338°
2026-05-08 05:56 24.03053 112.89501 36105 ft 436 kts 338°
2026-05-08 05:56 24.08890 112.87604 36101 ft 436 kts 338°
2026-05-08 05:57 24.14738 112.85675 36113 ft 436 kts 337°
2026-05-08 05:57 24.20560 112.83740 36106 ft 436 kts 337°
2026-05-08 05:58 24.26424 112.81793 36125 ft 436 kts 337°
2026-05-08 05:58 24.32243 112.79856 36129 ft 438 kts 337°
2026-05-08 05:59 24.38089 112.77818 36128 ft 434 kts 334°
2026-05-08 05:59 24.43218 112.74603 36121 ft 420 kts 314°
2026-05-08 06:00 24.47018 112.69809 36142 ft 414 kts 302°
2026-05-08 06:00 24.49629 112.64233 36131 ft 410 kts 286°
2026-05-08 06:01 24.50675 112.58069 36143 ft 410 kts 277°
2026-05-08 06:01 24.51266 112.51828 36135 ft 411 kts 276°
2026-05-08 06:02 24.51813 112.45634 36143 ft 411 kts 276°
2026-05-08 06:02 24.52381 112.39401 36147 ft 410 kts 276°
2026-05-08 06:03 24.52968 112.33176 36150 ft 409 kts 276°
2026-05-08 06:03 24.53559 112.26965 36157 ft 408 kts 275°
2026-05-08 06:04 24.54146 112.20789 36161 ft 409 kts 275°
2026-05-08 06:04 24.54740 112.14542 36178 ft 409 kts 275°
2026-05-08 06:05 24.55326 112.08337 36182 ft 408 kts 275°
2026-05-08 06:05 24.55904 112.02127 36184 ft 409 kts 275°
2026-05-08 06:06 24.56485 111.95895 36196 ft 409 kts 275°
2026-05-08 06:06 24.57061 111.89722 36181 ft 409 kts 275°
2026-05-08 06:07 24.57638 111.83507 36175 ft 410 kts 275°
2026-05-08 06:07 24.58217 111.77268 36173 ft 411 kts 276°
2026-05-08 06:08 24.58791 111.71029 36163 ft 410 kts 275°
2026-05-08 06:08 24.59361 111.64811 36160 ft 411 kts 275°
2026-05-08 06:09 24.59932 111.58540 36154 ft 409 kts 275°
2026-05-08 06:09 24.60493 111.52342 36142 ft 409 kts 275°
2026-05-08 06:10 24.61054 111.46111 36135 ft 409 kts 275°
2026-05-08 06:10 24.61608 111.39943 36141 ft 408 kts 275°
2026-05-08 06:11 24.62168 111.33679 36143 ft 408 kts 275°
2026-05-08 06:11 24.62720 111.27492 36144 ft 408 kts 275°
2026-05-08 06:12 24.63257 111.21301 36147 ft 408 kts 275°
2026-05-08 06:12 24.63792 111.15084 36142 ft 410 kts 275°
2026-05-08 06:13 24.64327 111.08855 36150 ft 409 kts 275°
2026-05-08 06:13 24.64858 111.02591 36157 ft 409 kts 275°
2026-05-08 06:14 24.65383 110.96381 36147 ft 409 kts 275°
2026-05-08 06:14 24.65912 110.90150 36153 ft 409 kts 275°
2026-05-08 06:15 24.66520 110.83912 36145 ft 410 kts 279°
2026-05-08 06:15 24.68340 110.77973 36141 ft 413 kts 295°
2026-05-08 06:16 24.71605 110.72739 36136 ft 420 kts 307°
2026-05-08 06:16 24.75734 110.68143 36135 ft 422 kts 312°
2026-05-08 06:17 24.82200 110.61517 36141 ft 423 kts 312°
2026-05-08 06:17 24.86481 110.57084 36145 ft 422 kts 311°
2026-05-08 06:18 24.90749 110.52610 36141 ft 421 kts 311°
2026-05-08 06:18 24.94975 110.48155 36139 ft 422 kts 311°
2026-05-08 06:19 24.99228 110.43662 36146 ft 422 kts 311°
2026-05-08 06:19 25.03472 110.39170 36144 ft 422 kts 311°
2026-05-08 06:20 25.07724 110.34676 36134 ft 422 kts 311°
2026-05-08 06:20 25.11997 110.30161 36141 ft 421 kts 311°
2026-05-08 06:21 25.16257 110.25656 36140 ft 422 kts 311°
2026-05-08 06:21 25.20499 110.21165 36150 ft 421 kts 311°
2026-05-08 06:22 25.24758 110.16683 36149 ft 422 kts 311°
2026-05-08 06:22 25.29026 110.12217 36154 ft 423 kts 311°
2026-05-08 06:23 25.33334 110.07707 36159 ft 424 kts 311°
2026-05-08 06:23 25.37586 110.03254 36170 ft 422 kts 311°
2026-05-08 06:24 25.41854 109.98779 36180 ft 423 kts 311°
2026-05-08 06:24 25.46131 109.94281 36193 ft 422 kts 311°
2026-05-08 06:25 25.50381 109.89809 36194 ft 422 kts 311°
2026-05-08 06:25 25.54628 109.85333 36200 ft 422 kts 311°
2026-05-08 06:26 25.58881 109.80845 36208 ft 422 kts 311°
2026-05-08 06:26 25.63151 109.76334 36204 ft 422 kts 311°
2026-05-08 06:27 25.67385 109.71858 36206 ft 421 kts 311°
2026-05-08 06:27 25.71652 109.67347 36200 ft 420 kts 311°
2026-05-08 06:28 25.75781 109.62732 36203 ft 417 kts 306°
2026-05-08 06:28 25.78651 109.57255 36201 ft 409 kts 288°
2026-05-08 06:29 25.80394 109.51233 36208 ft 407 kts 284°
2026-05-08 06:29 25.81915 109.45194 36214 ft 407 kts 284°
2026-05-08 06:30 25.83439 109.39167 36218 ft 406 kts 284°
2026-05-08 06:30 25.84994 109.33125 36228 ft 406 kts 284°
2026-05-08 06:31 25.86564 109.27095 36223 ft 406 kts 284°
2026-05-08 06:31 25.88129 109.21107 36230 ft 406 kts 284°
2026-05-08 06:32 25.89700 109.15085 36228 ft 405 kts 284°
2026-05-08 06:32 25.91277 109.09028 36228 ft 406 kts 284°
2026-05-08 06:33 25.92845 109.03000 36237 ft 406 kts 284°
2026-05-08 06:33 25.94445 108.96973 36238 ft 405 kts 284°
2026-05-08 06:34 25.96046 108.90971 36234 ft 406 kts 284°
2026-05-08 06:34 25.97645 108.84961 36244 ft 405 kts 284°
2026-05-08 06:35 25.99235 108.78960 36245 ft 405 kts 284°
2026-05-08 06:35 26.00829 108.72935 36242 ft 406 kts 284°
2026-05-08 06:36 26.02427 108.66911 36244 ft 404 kts 284°
2026-05-08 06:36 26.04017 108.60944 36243 ft 405 kts 285°
2026-05-08 06:37 26.05617 108.54920 36244 ft 404 kts 284°
2026-05-08 06:37 26.07204 108.48933 36241 ft 403 kts 284°
2026-05-08 06:38 26.08787 108.42941 36245 ft 403 kts 284°
2026-05-08 06:38 26.10707 108.37108 36250 ft 405 kts 291°
2026-05-08 06:39 26.13127 108.31393 36248 ft 406 kts 292°
2026-05-08 06:39 26.15620 108.25759 36259 ft 405 kts 292°
2026-05-08 06:40 26.18102 108.20116 36259 ft 407 kts 292°
2026-05-08 06:40 26.20567 108.14454 36260 ft 405 kts 292°
2026-05-08 06:41 26.23006 108.08817 36257 ft 406 kts 292°
2026-05-08 06:41 26.25462 108.03117 36258 ft 405 kts 292°
2026-05-08 06:42 26.27888 107.97470 36254 ft 404 kts 292°
2026-05-08 06:42 26.30306 107.91841 36253 ft 404 kts 292°
2026-05-08 06:43 26.32733 107.86179 36249 ft 404 kts 292°
2026-05-08 06:43 26.35148 107.80537 36252 ft 404 kts 292°
2026-05-08 06:44 26.37566 107.74879 36261 ft 404 kts 292°
2026-05-08 06:44 26.40001 107.69184 36265 ft 404 kts 292°
2026-05-08 06:45 26.42416 107.63523 36265 ft 403 kts 292°
2026-05-08 06:45 26.44835 107.57835 36274 ft 402 kts 292°
2026-05-08 06:46 26.47231 107.52204 36275 ft 403 kts 292°
2026-05-08 06:46 26.49642 107.46526 36285 ft 402 kts 292°
2026-05-08 06:47 26.52033 107.40882 36291 ft 402 kts 292°
2026-05-08 06:47 26.54418 107.35246 36281 ft 402 kts 292°
2026-05-08 06:48 26.56808 107.29597 36290 ft 402 kts 291°
2026-05-08 06:48 26.59199 107.23945 36293 ft 401 kts 291°
2026-05-08 06:49 26.61585 107.18296 36299 ft 402 kts 291°
2026-05-08 06:49 26.63961 107.12663 36299 ft 401 kts 291°
2026-05-08 06:50 26.66366 107.07003 36307 ft 403 kts 291°
2026-05-08 06:50 26.68761 107.01360 36302 ft 402 kts 291°
2026-05-08 06:51 26.71169 106.95687 36313 ft 402 kts 291°
2026-05-08 06:51 26.73566 106.90040 36314 ft 402 kts 291°
2026-05-08 06:52 26.75948 106.84405 36316 ft 402 kts 291°
2026-05-08 06:52 26.78679 106.78934 36322 ft 407 kts 301°
2026-05-08 06:53 26.82514 106.74167 36317 ft 415 kts 310°
2026-05-08 06:53 26.86828 106.69859 36318 ft 416 kts 312°
2026-05-08 06:54 26.91250 106.65591 36313 ft 417 kts 313°
2026-05-08 06:54 26.95669 106.61314 36306 ft 417 kts 312°
2026-05-08 06:55 27.00033 106.57064 36307 ft 415 kts 312°
2026-05-08 06:55 27.04409 106.52775 36303 ft 415 kts 312°
2026-05-08 06:56 27.08760 106.48498 36301 ft 413 kts 312°
2026-05-08 06:56 27.13080 106.44244 36301 ft 415 kts 312°
2026-05-08 06:57 27.17457 106.39928 36303 ft 416 kts 311°
2026-05-08 06:57 27.21824 106.35630 36304 ft 414 kts 311°
2026-05-08 06:58 27.26193 106.31381 36306 ft 413 kts 311°
2026-05-08 06:58 27.30548 106.27150 36307 ft 414 kts 311°
2026-05-08 06:59 27.34915 106.22894 36308 ft 414 kts 311°
2026-05-08 06:59 27.39258 106.18658 36307 ft 413 kts 312°
2026-05-08 07:00 27.43630 106.14391 36301 ft 414 kts 311°
2026-05-08 07:00 27.47976 106.10144 36298 ft 414 kts 311°
2026-05-08 07:01 27.52329 106.05884 36296 ft 414 kts 311°
2026-05-08 07:01 27.56655 106.01645 36291 ft 412 kts 311°
2026-05-08 07:02 27.61016 105.97360 36289 ft 413 kts 311°
2026-05-08 07:02 27.65380 105.93078 36291 ft 413 kts 311°
2026-05-08 07:03 27.69686 105.88795 36285 ft 410 kts 309°
2026-05-08 07:03 27.73222 105.83884 36283 ft 396 kts 293°
2026-05-08 07:04 27.75281 105.78173 36282 ft 391 kts 284°
2026-05-08 07:04 27.76895 105.72317 36282 ft 389 kts 283°
2026-05-08 07:05 27.78469 105.66469 36287 ft 390 kts 283°
2026-05-08 07:05 27.80103 105.60651 36287 ft 390 kts 286°
2026-05-08 07:06 27.82185 105.54947 36289 ft 393 kts 289°
2026-05-08 07:06 27.84432 105.49309 36290 ft 392 kts 290°
2026-05-08 07:07 27.86655 105.43703 36288 ft 391 kts 289°
2026-05-08 07:07 27.88858 105.38087 36288 ft 391 kts 290°
2026-05-08 07:08 27.91249 105.32569 36290 ft 394 kts 291°
2026-05-08 07:08 27.93771 105.27029 36296 ft 393 kts 291°
2026-05-08 07:09 27.96268 105.21600 36294 ft 394 kts 294°
2026-05-08 07:09 27.99716 105.16637 36289 ft 408 kts 308°
2026-05-08 07:10 28.04276 105.12710 36283 ft 419 kts 318°
2026-05-08 07:10 28.09261 105.09227 36282 ft 421 kts 319°
2026-05-08 07:11 28.14295 105.05795 36284 ft 421 kts 319°
2026-05-08 07:11 28.19311 105.02348 36288 ft 421 kts 319°
2026-05-08 07:12 28.24313 104.98873 36296 ft 419 kts 319°
2026-05-08 07:12 28.29276 104.95408 36290 ft 419 kts 319°
2026-05-08 07:13 28.34242 104.91925 36283 ft 419 kts 319°
2026-05-08 07:13 28.39223 104.88429 36279 ft 417 kts 319°
2026-05-08 07:14 28.44096 104.85020 36270 ft 417 kts 319°
2026-05-08 07:14 28.49028 104.81567 36267 ft 418 kts 319°
2026-05-08 07:15 28.53989 104.78095 36266 ft 418 kts 319°
2026-05-08 07:15 28.58968 104.74610 36268 ft 419 kts 319°
2026-05-08 07:16 28.63913 104.71143 36272 ft 416 kts 319°
2026-05-08 07:16 28.68854 104.67673 36267 ft 417 kts 318°
2026-05-08 07:17 28.73825 104.64177 36269 ft 417 kts 319°
2026-05-08 07:17 28.78771 104.60699 36269 ft 416 kts 318°
2026-05-08 07:18 28.83693 104.57228 36265 ft 417 kts 318°
2026-05-08 07:18 28.88619 104.53740 36259 ft 416 kts 318°
2026-05-08 07:19 28.93551 104.50230 36251 ft 416 kts 318°
2026-05-08 07:19 28.98472 104.46723 36245 ft 415 kts 318°
2026-05-08 07:20 29.03376 104.43214 36244 ft 416 kts 318°
2026-05-08 07:20 29.08288 104.39707 36249 ft 416 kts 318°
2026-05-08 07:21 29.13188 104.36204 36250 ft 415 kts 318°
2026-05-08 07:21 29.18105 104.32682 36249 ft 414 kts 317°
2026-05-08 07:22 29.22974 104.29195 36248 ft 414 kts 317°
2026-05-08 07:22 29.27863 104.25682 36249 ft 413 kts 316°
2026-05-08 07:23 29.32624 104.21970 35975 ft 412 kts 314°
2026-05-08 07:23 29.34935 104.20081 35696 ft 409 kts 314°
2026-05-08 07:23 29.37269 104.18166 35414 ft 407 kts 314°
2026-05-08 07:24 29.39563 104.16288 35140 ft 409 kts 314°
2026-05-08 07:24 29.41904 104.14380 34862 ft 411 kts 314°
2026-05-08 07:24 29.44229 104.12494 34589 ft 409 kts 314°
2026-05-08 07:24 29.46563 104.10606 34311 ft 409 kts 315°
2026-05-08 07:25 29.48874 104.08740 33767 ft 408 kts 315°
2026-05-08 07:25 29.51198 104.06870 33049 ft 405 kts 315°
2026-05-08 07:25 29.55773 104.03182 31636 ft 403 kts 315°
2026-05-08 07:26 29.58066 104.01327 30861 ft 403 kts 316°
2026-05-08 07:26 29.60358 103.99472 30053 ft 405 kts 316°
2026-05-08 07:26 29.62661 103.97604 29256 ft 407 kts 317°
2026-05-08 07:26 29.64953 103.95746 28476 ft 408 kts 317°
2026-05-08 07:27 29.67298 103.93892 27680 ft 410 kts 320°
2026-05-08 07:27 29.69808 103.92258 26959 ft 416 kts 327°
2026-05-08 07:27 29.72571 103.91050 26288 ft 443 kts 337°
2026-05-08 07:27 29.75640 103.90339 25623 ft 455 kts 347°
2026-05-08 07:28 29.78788 103.90140 24886 ft 461 kts 354°
2026-05-08 07:28 29.82039 103.90404 24145 ft 465 kts
2026-05-08 07:28 29.85171 103.91254 23433 ft 465 kts 12°
2026-05-08 07:28 29.88219 103.92453 22723 ft 462 kts 16°
2026-05-08 07:29 29.91229 103.93801 22008 ft 457 kts 18°
2026-05-08 07:29 29.94136 103.95174 21297 ft 453 kts 19°
2026-05-08 07:29 29.97017 103.96558 20579 ft 449 kts 19°
2026-05-08 07:29 29.99878 103.97936 19865 ft 444 kts 19°
2026-05-08 07:30 30.02710 103.99297 19152 ft 439 kts 19°
2026-05-08 07:30 30.05517 104.00639 18610 ft 429 kts 19°
2026-05-08 07:30 30.08238 104.01939 18370 ft 418 kts 19°
2026-05-08 07:30 30.10944 104.03217 17928 ft 421 kts 19°
2026-05-08 07:31 30.13655 104.04487 17138 ft 421 kts 19°
2026-05-08 07:31 30.16372 104.05694 16309 ft 415 kts 16°
2026-05-08 07:31 30.19107 104.06458 15632 ft 396 kts
2026-05-08 07:31 30.21802 104.06279 15019 ft 376 kts 344°
2026-05-08 07:32 30.24179 104.05267 14382 ft 363 kts 330°
2026-05-08 07:32 30.26299 104.03719 14012 ft 353 kts 322°
2026-05-08 07:32 30.28176 104.01919 13620 ft 355 kts 312°
2026-05-08 07:32 30.29589 103.99619 13415 ft 343 kts 296°
2026-05-08 07:33 30.30522 103.97156 13244 ft 326 kts 288°
2026-05-08 07:33 30.30817 103.94651 13104 ft 311 kts 265°
2026-05-08 07:33 30.30271 103.92286 12998 ft 299 kts 246°
2026-05-08 07:33 30.29214 103.90283 12865 ft 288 kts 234°
2026-05-08 07:34 30.27942 103.88564 12604 ft 281 kts 225°
2026-05-08 07:34 30.26345 103.87276 12167 ft 282 kts 205°
2026-05-08 07:34 30.24437 103.86712 11666 ft 285 kts 186°
2026-05-08 07:34 30.22451 103.86745 11168 ft 288 kts 174°
2026-05-08 07:35 30.20478 103.87172 10711 ft 288 kts 162°
2026-05-08 07:35 30.18646 103.88051 10341 ft 284 kts 154°
2026-05-08 07:35 30.16786 103.88740 10102 ft 276 kts 172°
2026-05-08 07:35 30.14878 103.88656 9658 ft 275 kts 191°
2026-05-08 07:36 30.13051 103.87991 9167 ft 276 kts 202°
2026-05-08 07:36 30.11426 103.86828 8681 ft 278 kts 227°
2026-05-08 07:36 30.10521 103.84912 8176 ft 275 kts 260°
2026-05-08 07:36 30.10574 103.82755 7701 ft 271 kts 289°
2026-05-08 07:37 30.11362 103.80785 7210 ft 268 kts 303°
2026-05-08 07:37 30.12291 103.78982 6975 ft 255 kts 301°
2026-05-08 07:37 30.13108 103.77239 6963 ft 238 kts 305°
2026-05-08 07:37 30.14195 103.75909 6942 ft 220 kts 332°
2026-05-08 07:38 30.15602 103.75430 6937 ft 208 kts
2026-05-08 07:38 30.16979 103.75885 6942 ft 199 kts 25°
2026-05-08 07:38 30.18214 103.76463 6949 ft 188 kts 20°
2026-05-08 07:38 30.19454 103.76936 6802 ft 189 kts 22°
2026-05-08 07:39 30.20647 103.77623 6565 ft 193 kts 27°
2026-05-08 07:39 30.21907 103.78173 6317 ft 194 kts 19°
2026-05-08 07:39 30.23210 103.78658 6078 ft 193 kts 22°
2026-05-08 07:39 30.24466 103.79217 5835 ft 193 kts 24°
2026-05-08 07:40 30.25690 103.79823 5583 ft 192 kts 25°
2026-05-08 07:40 30.26929 103.80405 5341 ft 191 kts 23°
2026-05-08 07:40 30.28170 103.80975 5092 ft 190 kts 23°
2026-05-08 07:40 30.29388 103.81540 4891 ft 187 kts 23°
2026-05-08 07:41 30.30592 103.82098 4886 ft 187 kts 23°
2026-05-08 07:41 30.31819 103.82667 4889 ft 188 kts 22°
2026-05-08 07:41 30.33035 103.83226 4890 ft 188 kts 23°
2026-05-08 07:41 30.34251 103.83785 4888 ft 187 kts 22°
2026-05-08 07:42 30.35475 103.84347 4880 ft 187 kts 23°
2026-05-08 07:42 30.36691 103.84911 4882 ft 189 kts 23°
2026-05-08 07:42 30.37916 103.85480 4887 ft 188 kts 23°
2026-05-08 07:42 30.39130 103.86041 4891 ft 187 kts 23°
2026-05-08 07:43 30.40320 103.86589 4882 ft 183 kts 23°
2026-05-08 07:43 30.41542 103.87152 4734 ft 189 kts 23°
2026-05-08 07:43 30.42753 103.87709 4444 ft 185 kts 23°
2026-05-08 07:43 30.43927 103.88253 4205 ft 173 kts 23°
2026-05-08 07:44 30.45005 103.88753 3975 ft 165 kts 23°
2026-05-08 07:44 30.46081 103.89251 3758 ft 168 kts 23°
2026-05-08 07:44 30.47154 103.89747 3528 ft 165 kts 23°
2026-05-08 07:44 30.48216 103.90239 3307 ft 164 kts 22°
2026-05-08 07:45 30.49275 103.90729 3090 ft 160 kts 22°
2026-05-08 07:45 30.50283 103.91194 2886 ft 149 kts 22°
2026-05-08 07:45 30.51203 103.91621 2702 ft 137 kts 22°
2026-05-08 07:45 30.52064 103.92026 2539 ft 131 kts 22°
2026-05-08 07:46 30.52913 103.92396 2400 ft 131 kts 19°
2026-05-08 07:46 30.53780 103.92799 2193 ft 135 kts 22°
2026-05-08 07:46 30.54641 103.93206 2029 ft 133 kts 22°
2026-05-08 07:46 30.55511 103.93607 1860 ft 134 kts 25°
2026-05-08 07:47 30.56375 103.94016 1682 ft 134 kts 21°
2026-05-08 07:47 30.57173 103.94387 1637 ft 98 kts 21°
2026-05-08 07:47 30.57632 103.94604 1637 ft 56 kts 21°
2026-05-08 07:47 30.57980 103.94765 1637 ft 43 kts 27°
2026-05-08 07:48 30.58173 103.94939 1637 ft 16 kts 53°
2026-05-08 07:48 30.58236 103.95035 1637 ft 15 kts 53°
2026-05-08 07:48 30.58309 103.95126 1637 ft 15 kts 36°
2026-05-08 07:48 30.58406 103.95175 1637 ft 14 kts 22°
2026-05-08 07:49 30.58483 103.95214 1637 ft 8 kts 25°
2026-05-08 07:49 30.58489 103.95217 1637 ft 0 kts 26°
2026-05-08 07:49 30.58521 103.95231 1637 ft 12 kts 20°
2026-05-08 07:49 30.58635 103.95283 1637 ft 19 kts 22°
2026-05-08 07:50 30.58700 103.95351 1637 ft 10 kts 108°
2026-05-08 07:50 30.58669 103.95442 1637 ft 13 kts 111°
2026-05-08 07:50 30.58642 103.95549 1637 ft 14 kts 100°
2026-05-08 07:50 30.58672 103.95634 1637 ft 9 kts 13°
2026-05-08 07:51 30.58737 103.95655 1637 ft 9 kts
2026-05-08 07:51 30.58774 103.95610 1637 ft 8 kts 291°
2026-05-08 07:51 30.58780 103.95590 1637 ft 0 kts 291°